Tracking 27380 objects as of 5-Jun-2023
HD Live streaming from Space Station
objects crossing your sky now

STARLINK-1602

Track STARLINK-1602 now!
10-day predictions
STARLINK-1602 is classified as:


NORAD ID: 46121
Int'l Code: 2020-057E
Perigee: 553.6 km
Apogee: 555.1 km
Inclination: 53.1 °
Period: 95.6 minutes
Semi major axis: 6925 km
RCS: Unknown
Launch date: August 18, 2020
Source: United States (US)
Launch site: AIR FORCE EASTERN TEST RANGE (AFETR)
Your satellite tracking list
Your tracking list is empty




NASA's NSSDC Master Catalog

Two Line Element Set (TLE):
1 46121U 20057E   23156.22920400  .00000651  00000-0  62622-4 0  9998
2 46121  53.0539 143.7719 0001112  90.1490 269.9627 15.06391911155009
Source of the keplerian elements: AFSPC